Вернуться в каталог

DELTA 1 DEB

АктивенUNKNOWN
NORAD 19599·DEBRIS·🇺🇸 United States

Запущен Aug 16, 1984 с Cape Canaveral Space Force Station

Loading…

Ближайшие Пролёты (ближайшие 24 часа)

TLE

СвежийSource: Space-Track

Эпоха: Sep 13, 2026, 22:59 UTC

1 19599U 84088H   26256.95765228  .00000185  00000-0  69880-4 0  9995
2 19599  28.7230 120.6930 1907775 285.2386  54.5947 10.96588789246926

Отслеживайте DELTA 1 DEB в реальном времени с AllMySat

Download on the App Store